Погода в Маракайбо

Венесуэла     10°38′33″N   71°38′27″W
темп.,
°C
ветер,
м/с
пор.,
м/с
влажн.,
%
обл.,
%
осадки,
мм/ч
давл.,
гПа
погр.,
м
16 мая, вс
вс1623:00+26ссв5118073 0.0 1011570
02:00+26ссв478396 0.0 1009491
05:00+26ссв368090 0.0 1009367
08:00+26св2372100 0.0 1011375
11:00+31всв2357100 0.0 10111174
14:00+33всв4352100 0.0 10091496
17:00+31св546094 0.0 1008819
20:00+27св4107993 0.0 1010516
17 мая, пн
пн1723:00+26ссв598346 0.1 1011516
02:00+26ссв488664 0.6 1010593
05:00+26ссв478476 0.3 1010610
08:00+27св347660 0.4 1011545
11:00+32в225624 0.0 10111232
14:00+33в345188 0.3 10091528
17:00+32св445617 0.3 10081051
20:00+27ссв3682100 0.9 1010281
18 мая, вт
вт1823:00+27ссв3782100 0.7 1011550
02:00+26с4887100 0.8 1010617
05:00+26с258791 0.1 1010324
08:00+27ссв2282100 0.2 1011434
11:00+31ссз0160100 0.1 10121054
14:00+32св215997 1.8 10101192
17:00+31св336097 0.3 1008806
20:00+26св2685100 3.1 1010235
19 мая, ср
ср1923:00+26ссв2687100 0.4 1012293
02:00+26ссз3687100 0.7 1010293
05:00+25ссз2493100 2.9 1010176
08:00+25с2493100 7.1 1011152
11:00+26сз2390100 2.8 1012275
14:00+31ссз226476 2.8 1010939
17:00+31с226023 0.0 10071047
20:00+27св368260 0.3 1010255
20 мая, чт
чт2023:00+27св398388 0.4 1011446
02:00+26с3789100 0.6 1009459
05:00+26ссв2588100 0.3 1008480
08:00+27св1183100 0.3 1010365
11:00+31ююв1262100 0.1 1010997
14:00+33юв3352100 0.2 10081665
17:00+33в125184 0.2 10061116
20:00+28св377996 0.3 1008370